Lexington Weather

Lexington, Massachusetts, USA

27°F
12/12/2019 4:49pm 
  • Lexington Conditions: Partly cloudy
  • Temperature: 27.0°F / -2.8°CColder 1.8°F than last hour.
  • Dew Point: 19.4°FDecreased 0.9°Fsince last hour.
  • Relative Humidity: 73%Increased 3.0% since last hour.
  • Wind: Wind from WSW WSW 1 mph, 10-min avg: 1 mph, gust: 2 mph
  • Barometer: 30.66 in Steady
  • Visibility: 10 miles
  • Snow Today: 0.0 in
  •   

Regional Weather Roundup
for Boston / Norton, MA

        
000
ASUS41 KBOX 121510
RWRBOX

REGIONAL WEATHER ROUNDUP
NATIONAL WEATHER SERVICE BOSTON/NORTON MA
1000 AM EST THU DEC 12 2019

NOTE:  "FAIR" INDICATES FEW OR NO CLOUDS BELOW 12,000 FEET WITH NO 
SIGNIFICANT WEATHER AND/OR OBSTRUCTIONS TO VISIBILITY.

MAZALL-121600-
EASTERN MASSACHUSETTS
  
CITY           SKY/WX    TMP DP  RH WIND       PRES   REMARKS
BOSTON         FAIR      30   9  41 NW12      30.72R WCI  20          
BEVERLY        FAIR      26  11  52 NW10      30.70R WCI  16          
LAWRENCE       FAIR      25  10  53 W9        30.71R WCI  15          
BEDFORD        FAIR      26   8  46 VRB6      30.70R WCI  19          
BLUE HILL        N/A     23  14  68 NW8       30.66R WCI  14          
NORWOOD        FAIR      29  12  49 NW6       30.72R WCI  23          
MARSHFIELD     FAIR      28  14  54 VRB5G16   30.71R WCI  23          
PLYMOUTH       FAIR      25  15  66 NW10      30.70R WCI  15          
TAUNTON        FAIR      28  14  55 NW9       30.71R WCI  19          
NEW BEDFORD    FAIR      27  15  61 VRB6      30.71R WCI  20          
$$

MAZALL-121600-
CAPE COD AND THE ISLANDS
  
CITY           SKY/WX    TMP DP  RH WIND       PRES   REMARKS
FALMOUTH       SUNNY     25  14  63 NW9       30.71R WCI  15          
HYANNIS        FAIR      30  15  53 N14G22    30.69R WCI  19          
CHATHAM        FAIR      30  18  60 VRB6      30.70R WCI  24          
PROVINCETOWN   FAIR      31  17  56 NW18G26   30.70R WCI  19          
NANTUCKET      FAIR      30  32 100 NW21G29   30.70R WCI  17          
MARTHAS VNYRD  FAIR      28  13  53 NW14      30.70R WCI  17          
$$
 
MAZALL-121600-
CENTRAL AND WESTERN MASSACHUSETTS
  
CITY           SKY/WX    TMP DP  RH WIND       PRES   REMARKS
WORCESTER      FAIR      21  12  68 W8        30.64R WCI  11          
FITCHBURG      FAIR      25   9  50 W8        30.69R WCI  16          
ORANGE         FAIR      26  10  50 W7        30.68R WCI  18          
SPRINGFIELD    PTSUNNY   25  12  58 W5        30.69S WCI  19          
WESTFIELD      FAIR      25  12  58 NW8       30.70S WCI  16          
NORTH ADAMS    FAIR      23  11  60 NW7       30.67S WCI  15          
PITTSFIELD     PTSUNNY   21  10  62 W6        30.62S WCI  13          
$$
 
RIZALL-121600-
RHODE ISLAND
  
CITY           SKY/WX    TMP DP  RH WIND       PRES   REMARKS
PROVIDENCE     FAIR      28  13  53 NW9       30.73R WCI  19          
NEWPORT        FAIR      29  15  56 NW14      30.71R WCI  18          
BLOCK ISLAND   FAIR      30  15  53 N10       30.72S WCI  21          
SMITHFIELD     FAIR      26  16  65 VRB6      30.70R WCI  19          
WESTERLY       FAIR      29  12  49 NW10      30.73R WCI  20          
$$
 
CTZALL-121600-
CONNECTICUT
  
CITY           SKY/WX    TMP DP  RH WIND       PRES   REMARKS
BRADLEY INTL   PTSUNNY   26  12  55 W3        30.71S                  
HARTFORD       FAIR      28  11  48 NW5       30.74R WCI  23          
BRIDGEPORT     FAIR      30  10  43 NW5       30.74R WCI  25          
DANBURY        FAIR      24  10  55 NW5       30.72R WCI  18          
GROTON         FAIR      28  12  51 N15G21    30.72R WCI  16          
NEW HAVEN      FAIR      31  11  43 NW6       30.73R WCI  25          
CHESTER        FAIR      28  10  47 N7G14     30.70R WCI  21          
MERIDEN        FAIR      26  10  50 NW5       30.73R WCI  20          
WILLIMANTIC    FAIR      26  13  57 NW7       30.72S WCI  18          
OXFORD         FAIR      26  13  57 NW5       30.69R WCI  20          
$$

MEZ002-015-021-024-NHZ003-005-008-011-012-014-VTZ005-008-121600-
NORTHERN NEW ENGLAND
  
CITY           SKY/WX    TMP DP  RH WIND       PRES   REMARKS
PORTLAND ME    FAIR      28   6  39 W8        30.66R WCI  20          
BANGOR ME      FAIR      22   1  40 W12G21    30.60R WCI  10          
CONCORD NH     FAIR      26   7  44 NW12      30.67R WCI  16          
MANCHESTER NH  FAIR      26   7  44 NW10      30.68R WCI  16          
NASHUA NH      FAIR      27  12  53 VRB5      30.70R WCI  22          
PORTSMOUTH NH  PTSUNNY   26   8  47 W12       30.66R WCI  15          
JAFFREY NH     FAIR      22   8  55 W6        30.63R WCI  14          
KEENE NH       FAIR      28  12  51 VRB6      30.68R WCI  22          
BURLINGTON VT  PTSUNNY   24   8  50 W10       30.67R WCI  14          
MT. WASHINGTON FOG       -6  -6 100 W67G85      N/A  VSB 1/16WCI -43  
$$

NYZ052-076-121600-
EASTERN NEW YORK
  
CITY           SKY/WX    TMP DP  RH WIND       PRES   REMARKS
ALBANY         FAIR      26  10  50 W7        30.72S WCI  18          
NEW YORK CITY  PTSUNNY   31   8  38 N10       30.74R WCI  22          
$$
 
ANZALL-121600-
MARINE OBSERVATIONS
  
STATION/POSITION TIME  TEMP    WIND        PRES    VSBY  WAVE
                       AIR SEA DIR/SP/G                  HT/PER
                 (UTC) (F)     (DEG/KT/KT) (MB)    (MI)  (FT/S)
BOSTON BUOY      1450   28 46  320/ 17/ 23 1038.7R         2/ 3
BUZZARDS BAY     1400   28     340/ 17/ 21 1040.2R
NANTUCKET SOUND  1440      42              1040.1
MASS BAY-STELLWA 1404   27 46  320/ 16/ 19 1037.2R  1 7/8  2/ 4
ISLE OF SHOALS   1400   25     270/ 16/ 19 1038.1R
S OF BLOCK IS    1500      52                N/A           5/ 5
$$

......................KEY.........................
  SKY/WX - SKY CONDITION/PRESENT WEATHER
  TMP    - TEMPERATURE IN FAHRENHEIT
  DWPT   - DEWPOINT IN FAHRENHEIT
  RH     - RELATIVE HUMIDITY IN PERCENT
  WIND   - DIRECTION AND SPEED IN MPH
  PRES   - MEAN SEA LEVEL PRESSURE IN INCHES OF HG
  WCI    - WIND CHILL INDEX
  VSB    - VISIBILITY IN MILES
  HX     - HEAT INDEX
  TC     - TEMPERATURE IN CELSIUS
  VRB    - VARIABLE WIND DIRECTION
  N/A    - NOT AVAILABLE
  
      

Other recent Regional Weather Roundups

Thu Dec 12, 4:10pm

Thu Dec 12, 4:01pm

Thu Dec 12, 3:10pm

Thu Dec 12, 3:00pm

Thu Dec 12, 2:10pm

Thu Dec 12, 2:01pm

Thu Dec 12, 1:10pm

Thu Dec 12, 1:00pm

Thu Dec 12, 12:10pm

Thu Dec 12, 12:00pm

Thu Dec 12, 11:10am

Thu Dec 12, 11:00am

Thu Dec 12, 8:10am

Thu Dec 12, 8:00am

Thu Dec 12, 7:10am

Thu Dec 12, 7:00am

Thu Dec 12, 6:10am

Thu Dec 12, 6:00am

Thu Dec 12, 5:10am

Thu Dec 12, 5:00am

Thu Dec 12, 4:10am

Thu Dec 12, 4:00am

Thu Dec 12, 3:10am

Thu Dec 12, 3:00am

Thu Dec 12, 2:10am

Thu Dec 12, 2:00am

Thu Dec 12, 1:10am

Thu Dec 12, 1:00am

Thu Dec 12, 12:10am

Thu Dec 12, 12:00am

Wed Dec 11, 11:10pm

Wed Dec 11, 11:00pm

Wed Dec 11, 10:10pm

Wed Dec 11, 10:00pm

Wed Dec 11, 9:10pm

Wed Dec 11, 9:00pm

Wed Dec 11, 8:10pm

Wed Dec 11, 8:00pm

Wed Dec 11, 7:10pm

Wed Dec 11, 7:00pm

Wed Dec 11, 6:10pm

Wed Dec 11, 6:00pm

Wed Dec 11, 5:10pm

Wed Dec 11, 5:01pm

Wed Dec 11, 4:10pm

Wed Dec 11, 4:00pm

Wed Dec 11, 3:10pm

Wed Dec 11, 3:01pm

Wed Dec 11, 2:10pm

Wed Dec 11, 2:00pm

Wed Dec 11, 1:10pm

Wed Dec 11, 1:00pm

Wed Dec 11, 12:10pm

Wed Dec 11, 12:00pm

Wed Dec 11, 11:10am

Wed Dec 11, 11:00am

Wed Dec 11, 10:10am

Wed Dec 11, 10:00am

Wed Dec 11, 9:10am

Wed Dec 11, 9:00am

Wed Dec 11, 8:10am

Wed Dec 11, 8:00am

Wed Dec 11, 7:10am

Wed Dec 11, 7:00am

Wed Dec 11, 6:10am

Wed Dec 11, 6:00am

Wed Dec 11, 5:10am

Wed Dec 11, 5:00am

Wed Dec 11, 4:10am

Wed Dec 11, 4:00am

Wed Dec 11, 3:10am

Wed Dec 11, 3:01am

Wed Dec 11, 2:10am

Wed Dec 11, 2:01am

Wed Dec 11, 1:10am

Wed Dec 11, 1:00am

Wed Dec 11, 12:10am

Wed Dec 11, 12:00am

Tue Dec 10, 11:10pm

Tue Dec 10, 11:00pm

Tue Dec 10, 10:10pm

Tue Dec 10, 10:00pm

Tue Dec 10, 9:10pm

Tue Dec 10, 9:01pm

Tue Dec 10, 8:10pm

Tue Dec 10, 8:00pm

Tue Dec 10, 7:10pm

Tue Dec 10, 7:01pm

Tue Dec 10, 6:10pm

Tue Dec 10, 6:01pm

Tue Dec 10, 5:10pm

Tue Dec 10, 5:00pm

Tue Dec 10, 4:10pm

Tue Dec 10, 4:01pm

Tue Dec 10, 3:10pm

Tue Dec 10, 3:01pm

Tue Dec 10, 2:10pm

Tue Dec 10, 2:01pm

Tue Dec 10, 1:10pm

Tue Dec 10, 1:00pm

Tue Dec 10, 12:10pm

Tue Dec 10, 12:00pm

Tue Dec 10, 11:10am

Tue Dec 10, 11:00am

Tue Dec 10, 10:10am

Tue Dec 10, 10:00am

Tue Dec 10, 9:10am

Tue Dec 10, 9:01am

Tue Dec 10, 8:10am

Tue Dec 10, 8:00am

Tue Dec 10, 7:10am

Tue Dec 10, 7:00am

Tue Dec 10, 6:10am

Tue Dec 10, 6:00am

Tue Dec 10, 5:10am

Tue Dec 10, 5:00am

Tue Dec 10, 4:10am

Tue Dec 10, 4:00am

Tue Dec 10, 3:10am

Tue Dec 10, 3:00am

Tue Dec 10, 2:10am

Tue Dec 10, 2:01am

Tue Dec 10, 1:10am

Tue Dec 10, 1:00am

Tue Dec 10, 12:10am

Tue Dec 10, 12:01am

Mon Dec 9, 11:10pm

Mon Dec 9, 11:01pm

Mon Dec 9, 10:10pm

Mon Dec 9, 10:00pm

Mon Dec 9, 9:10pm

Mon Dec 9, 9:01pm

Mon Dec 9, 8:10pm

Mon Dec 9, 8:01pm

Mon Dec 9, 7:10pm

Mon Dec 9, 7:00pm

Mon Dec 9, 6:10pm

Mon Dec 9, 6:00pm

Mon Dec 9, 5:10pm

Mon Dec 9, 5:01pm

Meta data:

ID: 53183735-6b24-4282-92f6-da32d48ddd9a
Link: https://api.weather.gov/products/53183735-6b24-4282-92f6-da32d48ddd9a